Anniston, AL

12:44 AM CDT on August 21, 2017 (GMT -0500)
Anniston Metro

Weather History for KANB - February, 2014

Change the Weather History Date:

Tuesday, February 4, 2014

  Actual Average Record
Temperature  
Mean Temperature 46 °F 45 °F  
Max Temperature 55 °F 56 °F 78 °F (1957)
Min Temperature 36 °F 34 °F 8 °F (1996)
Degree Days  
Heating Degree Days 19    
Month to date heating degree days 63  
Since 1 July heating degree days 2031  
Moisture  
Dew Point 45 °F    
Average Humidity 88    
Maximum Humidity 96    
Minimum Humidity 80    
Precipitation  
Precipitation 0.08 in 0.18 in 1.68 in (1956)
Month to date precipitation 1.06 0.71  
Year to date precipitation 4.11 5.23  
Sea Level Pressure  
Sea Level Pressure 30.06 in    
Wind  
Wind Speed 9 mph (ENE)    
Max Wind Speed 14 mph    
Max Gust Speed 21 mph    
T = Trace of Precipitation, MM = Missing Value Source: NWS Daily Summary

Daily Weather History Graph

Daily Weather History Graph

Search for Another Location

Airport or City:

Trip Planner

Search our weather history database for the weather conditions in past years. The results will help you decide how hot, cold, wet, or windy it might be!

Date:

Astronomy

Feb. 04, 2014 Rise Set
Actual Time 6:37 AM CST 5:17 PM CST
Civil Twilight 6:11 AM CST 5:43 PM CST
Nautical Twilight 5:41 AM CST 6:13 PM CST
Astronomical Twilight 5:12 AM CST 6:42 PM CST
Moon 9:33 AM CST (2/4) 10:51 PM CST (2/4)
Length of Visible Light 11h 32m
Length of Day
10h 40m
Waxing Crescent, 29% of the Moon is Illuminated
Feb 4
Waxing Crescent
Feb 6
First Quarter
Feb 14
Full
Feb 22
Last Quarter
Mar 1
New

Hourly Weather History & Observations

Time (CST) Temp. Windchill Dew Point Humidity Pressure Visibility Wind Dir Wind Speed Gust Speed Precip Events Conditions
12:53 AM 36.0 °F 32.1 °F 34.0 °F 93% 30.16 in - NE 4.6 mph - N/A   Clear
1:53 AM 37.0 °F 32.4 °F 34.0 °F 89% 30.17 in - East 5.8 mph - N/A   Clear
2:53 AM 37.0 °F 33.3 °F 34.0 °F 89% 30.17 in - NE 4.6 mph - N/A   Clear
3:48 AM 37.4 °F 33.8 °F 35.6 °F 93% 30.14 in - East 4.6 mph - N/A   Mostly Cloudy
3:53 AM 37.9 °F 33.5 °F 35.1 °F 89% 30.17 in - East 5.8 mph - N/A   Mostly Cloudy
4:53 AM 39.0 °F 34.8 °F 35.1 °F 86% 30.17 in - East 5.8 mph - N/A   Overcast
5:53 AM 39.9 °F 36.7 °F 36.0 °F 86% 30.18 in - ENE 4.6 mph - N/A   Overcast
6:53 AM 41.0 °F 35.2 °F 37.0 °F 86% 30.19 in - ENE 9.2 mph - N/A   Overcast
7:53 AM 42.1 °F 37.7 °F 37.9 °F 85% 30.20 in - ENE 6.9 mph - N/A   Overcast
8:21 AM 44.1 °F 39.5 °F 39.0 °F 82% 30.17 in - ENE 8.1 mph - N/A   Overcast
8:53 AM 45.0 °F 40.1 °F 39.9 °F 82% 30.18 in - East 9.2 mph - N/A   Overcast
9:43 AM 46.9 °F - 42.1 °F 83% 30.14 in - East 6.9 mph - N/A   Overcast
9:53 AM 48.0 °F - 42.1 °F 80% 30.16 in - East 5.8 mph - N/A   Overcast
10:21 AM 48.9 °F - 44.1 °F 83% 30.13 in - East 5.8 mph - N/A   Overcast
10:40 AM 50.0 °F - 44.1 °F 80% 30.11 in - East 6.9 mph - N/A   Overcast
10:53 AM 50.0 °F - 45.0 °F 83% 30.12 in - ENE 8.1 mph - N/A   Overcast
11:53 AM 53.1 °F - 48.0 °F 83% 30.07 in - East 11.5 mph - N/A   Overcast
12:53 PM 54.0 °F - 50.0 °F 86% 30.04 in - East 10.4 mph - N/A   Overcast
1:13 PM 54.0 °F - 50.0 °F 86% 30.01 in - East 10.4 mph - N/A   Overcast
1:53 PM 53.1 °F - 50.0 °F 89% 30.02 in - East 9.2 mph - N/A   Overcast
2:53 PM 53.1 °F - 50.0 °F 89% 30.01 in - East 10.4 mph 18.4 mph N/A   Overcast
3:08 PM 53.1 °F - 50.0 °F 89% 29.99 in - East 10.4 mph - 0.02 in Rain Light Rain
3:53 PM 53.1 °F - 50.0 °F 89% 30.00 in - East 11.5 mph 19.6 mph 0.02 in   Overcast
4:02 PM 53.1 °F - 50.0 °F 89% 29.98 in - East 12.7 mph - N/A   Overcast
4:23 PM 53.1 °F - 50.0 °F 89% 29.98 in - East 10.4 mph - N/A   Overcast
4:34 PM 52.0 °F - 48.9 °F 89% 29.98 in - East 9.2 mph - N/A   Overcast
4:53 PM 52.0 °F - 48.9 °F 89% 30.00 in - East 10.4 mph - N/A   Overcast
5:53 PM 51.1 °F - 48.9 °F 92% 29.99 in - East 8.1 mph - N/A   Overcast
6:53 PM 51.1 °F - 48.9 °F 92% 29.97 in - ENE 10.4 mph - N/A   Overcast
7:53 PM 51.1 °F - 50.0 °F 96% 29.97 in - East 9.2 mph - N/A   Overcast
8:53 PM 52.0 °F - 50.0 °F 93% 29.95 in - ENE 9.2 mph - N/A   Overcast
9:53 PM 53.1 °F - 51.1 °F 93% 29.94 in - East 10.4 mph - N/A   Overcast
10:53 PM 53.1 °F - 51.1 °F 93% 29.95 in - Variable 5.8 mph - 0.02 in Rain Light Rain
11:25 PM 53.1 °F - 50.0 °F 89% 29.91 in - East 8.1 mph - 0.03 in Rain Light Rain
11:53 PM 53.1 °F - 50.0 °F 89% 29.87 in - East 8.1 mph - 0.04 in Rain Light Rain